QPF
0.00 0.00 0.00 0.00 0.00 0.00 0.00 0.00 0.00 0.00 0.00 0.01 0.01 0.01 0.00 0.01 0.01 0.02 0.02 0.01 0.01 0.01 0.01 0.01 0.01 0.02 0.04 0.04 0.03 0.03 0.03 0.02 0.02 0.05 0.07 0.09 0.09 0.10 0.13 0.13 0.15 0.11 0.06 0.05
0.00 0.00 0.00 0.00 0.00 0.00 0.00 0.00 0.00 0.00 0.00 0.00 0.00 0.00 0.00 0.01 0.01 0.01 0.01 0.01 0.01 0.00 0.00 0.00 0.00 0.00 0.01 0.01 0.02 0.02 0.01 0.01 0.01 0.02 0.04 0.05 0.06 0.05 0.05 0.07 0.08 0.09 0.07 0.05
0.00 0.00 0.00 0.00 0.00 0.00 0.00 0.00 0.00 0.00 0.00 0.00 0.00 0.00 0.00 0.01 0.01 0.01 0.00 0.00 0.00 0.00 0.00 0.00 0.00 0.00 0.00 0.00 0.01 0.02 0.02 0.01 0.01 0.02 0.03 0.05 0.05 0.04 0.03 0.03 0.04 0.04 0.05 0.04
0.00 0.00 0.00 0.00 0.00 0.00 0.00 0.00 0.00 0.00 0.00 0.00 0.00 0.00 0.00 0.00 0.00 0.00 0.01 0.00 0.00 0.00 0.00 0.00 0.00 0.00 0.00 0.00 0.01 0.02 0.02 0.02 0.01 0.02 0.02 0.05 0.05 0.04 0.04 0.02 0.03 0.02 0.03 0.03
0.01 0.00 0.00 0.00 0.00 0.00 0.00 0.00 0.00 0.00 0.00 0.00 0.00 0.00 0.00 0.00 0.00 0.00 0.00 0.00 0.00 0.00 0.00 0.00 0.00 0.00 0.00 0.00 0.01 0.01 0.02 0.02 0.02 0.02 0.01 0.02 0.05 0.06 0.06 0.05 0.03 0.02 0.02 0.01
0.01 0.01 0.00 0.00 0.00 0.00 0.00 0.00 0.00 0.00 0.00 0.00 0.00 0.00 0.01 0.01 0.00 0.00 0.00 0.00 0.00 0.00 0.00 0.00 0.00 0.00 0.00 0.00 0.00 0.00 0.01 0.02 0.02 0.02 0.02 0.01 0.02 0.03 0.05 0.05 0.04 0.02 0.01 0.01
0.01 0.00 0.00 0.00 0.00 0.00 0.00 0.00 0.00 0.00 0.00 0.00 0.00 0.01 0.01 0.01 0.00 0.00 0.00 0.00 0.00 0.00 0.00 0.00 0.00 0.00 0.00 0.00 0.00 0.00 0.00 0.01 0.01 0.02 0.01 0.01 0.01 0.01 0.01 0.02 0.03 0.03 0.01 0.01
0.01 0.00 0.00 0.00 0.00 0.00 0.00 0.00 0.00 0.00 0.00 0.00 0.00 0.01 0.01 0.00 0.00 0.00 0.00 0.00 0.00 0.00 0.00 0.00 0.00 0.00 0.00 0.00 0.00 0.00 0.00 0.00 0.01 0.01 0.01 0.01 0.01 0.01 0.00 0.00 0.01 0.01 0.01 0.01
0.00 0.00 0.00 0.00 0.00 0.00 0.00 0.00 0.00 0.00 0.00 0.00 0.00 0.00 0.00 0.00 0.00 0.00 0.00 0.00 0.00 0.00 0.00 0.00 0.00 0.00 0.00 0.00 0.00 0.00 0.00 0.00 0.00 0.00 0.00 0.01 0.01 0.00 0.00 0.00 0.00 0.00 0.00 0.01
0.00 0.00 0.00 0.00 0.00 0.00 0.00 0.00 0.00 0.00 0.00 0.00 0.00 0.00 0.00 0.00 0.00 0.00 0.00 0.00 0.00 0.00 0.00 0.00 0.00 0.00 0.00 0.00 0.00 0.00 0.00 0.00 0.00 0.00 0.00 0.00 0.00 0.00 0.00 0.00 0.00 0.00 0.00 0.00
0.00 0.00 0.00 0.00 0.00 0.01 0.01 0.01 0.01 0.01 0.01 0.01 0.00 0.00 0.00 0.00 0.00 0.00 0.00 0.00 0.00 0.00 0.00 0.00 0.00 0.00 0.00 0.00 0.00 0.00 0.00 0.00 0.00 0.00 0.00 0.00 0.00 0.00 0.00 0.00 0.00 0.00 0.00 0.00
0.00 0.00 0.00 0.00 0.00 0.00 0.00 0.01 0.01 0.02 0.01 0.01 0.01 0.00 0.00 0.00 0.00 0.00 0.00 0.00 0.00 0.00 0.00 0.00 0.00 0.00 0.01 0.00 0.00 0.00 0.00 0.00 0.00 0.00 0.00 0.00 0.00 0.00 0.00 0.00 0.00 0.00 0.00 0.00
0.01 0.02 0.01 0.00 0.00 0.00 0.00 0.00 0.00 0.01 0.02 0.02 0.01 0.01 0.00 0.00 0.00 0.00 0.00 0.00 0.00 0.00 0.00 0.00 0.00 0.01 0.01 0.01 0.01 0.00 0.00 0.00 0.00 0.00 0.00 0.00 0.00 0.00 0.00 0.00 0.00 0.00 0.00 0.00
0.01 0.02 0.02 0.01 0.00 0.00 0.00 0.00 0.00 0.01 0.02 0.01 0.01 0.00 0.00 0.00 0.01 0.00 0.00 0.00 0.00 0.00 0.00 0.00 0.00 0.00 0.01 0.01 0.00 0.00 0.00 0.00 0.00 0.00 0.00 0.00 0.00 0.00 0.00 0.00 0.00 0.00 0.00 0.00
0.02 0.03 0.01 0.00 0.00 0.00 0.00 0.00 0.00 0.00 0.01 0.01 0.01 0.01 0.00 0.01 0.01 0.01 0.00 0.00 0.00 0.00 0.00 0.00 0.00 0.00 0.00 0.00 0.00 0.00 0.00 0.00 0.00 0.00 0.00 0.00 0.00 0.00 0.00 0.00 0.00 0.00 0.00 0.00
0.02 0.03 0.02 0.01 0.00 0.00 0.01 0.00 0.00 0.00 0.00 0.00 0.00 0.01 0.01 0.01 0.01 0.01 0.01 0.00 0.00 0.00 0.00 0.00 0.00 0.00 0.00 0.00 0.00 0.00 0.00 0.00 0.00 0.00 0.00 0.00 0.00 0.00 0.00 0.00 0.00 0.00 0.00 0.00
0.03 0.03 0.04 0.02 0.01 0.02 0.02 0.00 0.00 0.00 0.00 0.00 0.00 0.00 0.01 0.01 0.01 0.01 0.01 0.01 0.00 0.00 0.00 0.00 0.00 0.00 0.00 0.00 0.00 0.00 0.00 0.00 0.00 0.00 0.00 0.00 0.00 0.00 0.00 0.00 0.00 0.00 0.00 0.00
0.01 0.02 0.04 0.04 0.02 0.02 0.01 0.00 0.00 0.00 0.00 0.00 0.01 0.00 0.00 0.00 0.01 0.01 0.01 0.01 0.01 0.01 0.00 0.00 0.00 0.00 0.00 0.00 0.00 0.00 0.00 0.00 0.00 0.00 0.00 0.00 0.00 0.00 0.00 0.00 0.00 0.00 0.00 0.00
0.01 0.02 0.04 0.06 0.04 0.02 0.00 0.00 0.00 0.00 0.00 0.00 0.00 0.00 0.00 0.00 0.01 0.00 0.00 0.00 0.00 0.00 0.00 0.00 0.00 0.00 0.00 0.00 0.00 0.00 0.01 0.01 0.00 0.00 0.00 0.00 0.00 0.00 0.00 0.00 0.00 0.00 0.00 0.00
0.01 0.02 0.05 0.06 0.06 0.02 0.00 0.00 0.00 0.00 0.01 0.01 0.00 0.00 0.00 0.00 0.01 0.00 0.00 0.00 0.00 0.00 0.00 0.00 0.00 0.00 0.00 0.00 0.00 0.00 0.00 0.00 0.00 0.00 0.00 0.00 0.00 0.00 0.00 0.00 0.00 0.00 0.00 0.00
0.01 0.03 0.06 0.06 0.06 0.03 0.01 0.00 0.01 0.02 0.02 0.01 0.00 0.00 0.00 0.00 0.00 0.00 0.00 0.00 0.00 0.00 0.00 0.00 0.00 0.00 0.00 0.00 0.00 0.00 0.00 0.00 0.00 0.00 0.00 0.00 0.00 0.00 0.00 0.00 0.00 0.00 0.00 0.00
0.02 0.03 0.04 0.05 0.07 0.05 0.02 0.01 0.01 0.02 0.01 0.01 0.01 0.01 0.00 0.00 0.00 0.00 0.00 0.00 0.00 0.00 0.00 0.00 0.00 0.00 0.00 0.00 0.00 0.00 0.00 0.00 0.00 0.00 0.00 0.00 0.00 0.00 0.00 0.00 0.00 0.00 0.00 0.00
0.02 0.02 0.03 0.03 0.03 0.02 0.01 0.01 0.01 0.01 0.01 0.00 0.00 0.00 0.00 0.00 0.00 0.00 0.00 0.00 0.00 0.00 0.00 0.00 0.00 0.00 0.00 0.00 0.00 0.00 0.00 0.00 0.00 0.00 0.00 0.00 0.00 0.00 0.00 0.00 0.00 0.00 0.00 0.00
0.01 0.01 0.02 0.03 0.03 0.02 0.02 0.01 0.01 0.01 0.01 0.01 0.00 0.00 0.00 0.00 0.00 0.00 0.00 0.00 0.00 0.00 0.00 0.00 0.00 0.00 0.00 0.00 0.00 0.00 0.00 0.00 0.00 0.00 0.00 0.00 0.00 0.00 0.00 0.00 0.00 0.00 0.00 0.00
0.01 0.01 0.02 0.03 0.02 0.02 0.01 0.01 0.01 0.01 0.01 0.01 0.01 0.01 0.00 0.00 0.00 0.00 0.00 0.00 0.00 0.00 0.00 0.00 0.00 0.00 0.00 0.00 0.00 0.00 0.00 0.00 0.00 0.00 0.00 0.00 0.00 0.00 0.00 0.00 0.00 0.00 0.00 0.00
0.01 0.01 0.02 0.03 0.02 0.03 0.03 0.02 0.02 0.02 0.01 0.01 0.01 0.01 0.00 0.00 0.00 0.00 0.00 0.00 0.00 0.00 0.00 0.00 0.00 0.00 0.00 0.00 0.00 0.00 0.00 0.00 0.00 0.00 0.00 0.00 0.00 0.00 0.00 0.00 0.00 0.00 0.00 0.00
MSLP
1014.99 1015.45 1015.89 1016.29 1016.64 1016.93 1017.15 1017.32 1017.44 1017.50 1017.53 1017.52 1017.47 1017.38 1017.26 1017.10 1016.92 1016.73 1016.52 1016.32 1016.14 1015.98 1015.87 1015.83 1015.85 1015.97 1016.17 1016.46 1016.82 1017.23 1017.68 1018.12 1018.53 1018.88 1019.15 1019.34 1019.43 1019.46 1019.43 1019.36 1019.30 1019.24 1019.20 1019.20
1015.93 1016.34 1016.72 1017.05 1017.34 1017.58 1017.79 1017.96 1018.09 1018.17 1018.21 1018.18 1018.09 1017.94 1017.73 1017.47 1017.19 1016.90 1016.61 1016.33 1016.09 1015.89 1015.74 1015.66 1015.65 1015.72 1015.89 1016.16 1016.51 1016.93 1017.40 1017.89 1018.36 1018.77 1019.10 1019.33 1019.46 1019.49 1019.46 1019.38 1019.29 1019.21 1019.17 1019.16
1016.80 1017.15 1017.46 1017.72 1017.96 1018.17 1018.37 1018.55 1018.70 1018.80 1018.84 1018.79 1018.66 1018.43 1018.13 1017.78 1017.40 1017.01 1016.65 1016.33 1016.05 1015.83 1015.66 1015.55 1015.52 1015.56 1015.69 1015.91 1016.23 1016.64 1017.12 1017.63 1018.14 1018.60 1018.99 1019.27 1019.44 1019.50 1019.47 1019.39 1019.29 1019.21 1019.15 1019.14
1017.49 1017.78 1018.01 1018.22 1018.42 1018.62 1018.82 1019.03 1019.21 1019.33 1019.37 1019.30 1019.11 1018.80 1018.41 1017.96 1017.49 1017.05 1016.64 1016.30 1016.02 1015.81 1015.66 1015.55 1015.50 1015.52 1015.61 1015.78 1016.06 1016.43 1016.88 1017.39 1017.92 1018.41 1018.84 1019.16 1019.37 1019.47 1019.46 1019.39 1019.29 1019.19 1019.12 1019.09
1017.96 1018.17 1018.34 1018.51 1018.68 1018.90 1019.13 1019.38 1019.60 1019.74 1019.77 1019.67 1019.41 1019.03 1018.54 1018.01 1017.47 1016.99 1016.57 1016.25 1016.01 1015.85 1015.74 1015.68 1015.64 1015.64 1015.69 1015.82 1016.03 1016.34 1016.74 1017.22 1017.72 1018.22 1018.67 1019.03 1019.27 1019.40 1019.41 1019.35 1019.25 1019.14 1019.05 1019.00
1018.19 1018.33 1018.45 1018.59 1018.78 1019.02 1019.31 1019.61 1019.87 1020.03 1020.05 1019.89 1019.57 1019.10 1018.53 1017.92 1017.34 1016.84 1016.44 1016.17 1016.01 1015.94 1015.91 1015.91 1015.91 1015.92 1015.95 1016.02 1016.16 1016.39 1016.71 1017.12 1017.58 1018.06 1018.50 1018.86 1019.12 1019.27 1019.30 1019.25 1019.14 1019.02 1018.91 1018.83
1018.23 1018.30 1018.39 1018.53 1018.75 1019.04 1019.40 1019.75 1020.05 1020.22 1020.21 1020.01 1019.61 1019.05 1018.40 1017.73 1017.11 1016.61 1016.26 1016.07 1016.01 1016.05 1016.13 1016.22 1016.28 1016.31 1016.32 1016.35 1016.41 1016.55 1016.79 1017.11 1017.49 1017.91 1018.31 1018.66 1018.92 1019.06 1019.10 1019.05 1018.93 1018.80 1018.66 1018.55
1018.13 1018.16 1018.24 1018.41 1018.68 1019.04 1019.46 1019.87 1020.20 1020.36 1020.32 1020.06 1019.57 1018.93 1018.19 1017.47 1016.83 1016.34 1016.05 1015.94 1015.99 1016.15 1016.35 1016.54 1016.67 1016.74 1016.76 1016.74 1016.74 1016.80 1016.93 1017.15 1017.44 1017.77 1018.11 1018.41 1018.63 1018.76 1018.79 1018.73 1018.60 1018.45 1018.29 1018.16
1017.98 1018.00 1018.10 1018.32 1018.66 1019.09 1019.57 1020.02 1020.35 1020.50 1020.41 1020.07 1019.50 1018.77 1017.97 1017.19 1016.53 1016.06 1015.82 1015.79 1015.94 1016.21 1016.52 1016.81 1017.02 1017.13 1017.16 1017.13 1017.07 1017.05 1017.08 1017.20 1017.38 1017.62 1017.88 1018.11 1018.28 1018.37 1018.37 1018.29 1018.15 1017.98 1017.80 1017.66
1017.86 1017.91 1018.07 1018.34 1018.75 1019.24 1019.75 1020.22 1020.54 1020.64 1020.49 1020.07 1019.42 1018.61 1017.75 1016.93 1016.26 1015.81 1015.60 1015.64 1015.87 1016.22 1016.61 1016.98 1017.26 1017.42 1017.46 1017.42 1017.34 1017.25 1017.21 1017.22 1017.31 1017.45 1017.61 1017.75 1017.86 1017.89 1017.85 1017.74 1017.58 1017.40 1017.21 1017.06
1017.86 1017.96 1018.18 1018.51 1018.96 1019.48 1020.00 1020.44 1020.71 1020.75 1020.53 1020.03 1019.32 1018.46 1017.55 1016.72 1016.05 1015.61 1015.43 1015.50 1015.77 1016.17 1016.62 1017.03 1017.36 1017.55 1017.62 1017.59 1017.49 1017.37 1017.26 1017.21 1017.20 1017.25 1017.31 1017.37 1017.40 1017.37 1017.28 1017.14 1016.96 1016.76 1016.56 1016.39
1017.99 1018.16 1018.42 1018.80 1019.26 1019.76 1020.24 1020.62 1020.81 1020.77 1020.46 1019.91 1019.15 1018.27 1017.36 1016.53 1015.88 1015.46 1015.30 1015.39 1015.67 1016.09 1016.55 1016.98 1017.33 1017.55 1017.64 1017.62 1017.53 1017.39 1017.26 1017.15 1017.08 1017.04 1017.02 1016.99 1016.94 1016.85 1016.71 1016.53 1016.32 1016.10 1015.89 1015.71
1018.26 1018.47 1018.76 1019.13 1019.56 1019.99 1020.38 1020.65 1020.73 1020.60 1020.22 1019.63 1018.86 1018.00 1017.13 1016.36 1015.75 1015.37 1015.24 1015.33 1015.61 1016.01 1016.45 1016.87 1017.22 1017.45 1017.56 1017.56 1017.48 1017.35 1017.20 1017.07 1016.95 1016.84 1016.75 1016.65 1016.53 1016.37 1016.18 1015.95 1015.71 1015.47 1015.24 1015.05
1018.60 1018.83 1019.10 1019.42 1019.75 1020.06 1020.30 1020.42 1020.38 1020.15 1019.72 1019.12 1018.39 1017.60 1016.82 1016.15 1015.63 1015.32 1015.22 1015.32 1015.59 1015.95 1016.36 1016.75 1017.07 1017.30 1017.42 1017.44 1017.38 1017.27 1017.13 1016.98 1016.83 1016.69 1016.53 1016.36 1016.17 1015.96 1015.71 1015.44 1015.17 1014.90 1014.65 1014.43
1018.96 1019.15 1019.35 1019.55 1019.73 1019.86 1019.93 1019.88 1019.70 1019.38 1018.92 1018.34 1017.69 1017.03 1016.40 1015.87 1015.48 1015.27 1015.24 1015.36 1015.61 1015.94 1016.31 1016.65 1016.94 1017.15 1017.28 1017.32 1017.29 1017.20 1017.08 1016.93 1016.76 1016.57 1016.37 1016.14 1015.89 1015.61 1015.32 1015.01 1014.69 1014.39 1014.11 1013.85
1019.24 1019.35 1019.42 1019.45 1019.44 1019.36 1019.22 1019.00 1018.69 1018.29 1017.83 1017.32 1016.79 1016.29 1015.85 1015.51 1015.29 1015.21 1015.26 1015.43 1015.68 1015.98 1016.31 1016.60 1016.86 1017.05 1017.17 1017.23 1017.22 1017.15 1017.04 1016.89 1016.70 1016.49 1016.24 1015.96 1015.65 1015.32 1014.98 1014.62 1014.27 1013.93 1013.61 1013.31
1019.36 1019.34 1019.25 1019.09 1018.86 1018.57 1018.23 1017.84 1017.42 1016.98 1016.54 1016.12 1015.74 1015.43 1015.20 1015.07 1015.04 1015.11 1015.27 1015.49 1015.76 1016.05 1016.34 1016.61 1016.83 1017.00 1017.12 1017.17 1017.17 1017.12 1017.01 1016.86 1016.65 1016.40 1016.11 1015.78 1015.42 1015.04 1014.65 1014.25 1013.86 1013.48 1013.11 1012.76
1019.27 1019.10 1018.84 1018.48 1018.05 1017.57 1017.05 1016.53 1016.03 1015.57 1015.18 1014.88 1014.66 1014.55 1014.53 1014.61 1014.76 1014.98 1015.24 1015.53 1015.83 1016.12 1016.39 1016.63 1016.83 1016.98 1017.09 1017.14 1017.14 1017.09 1016.98 1016.81 1016.57 1016.29 1015.95 1015.57 1015.16 1014.74 1014.30 1013.86 1013.42 1013.00 1012.59 1012.20
1018.96 1018.65 1018.22 1017.70 1017.11 1016.48 1015.84 1015.23 1014.70 1014.26 1013.94 1013.75 1013.69 1013.75 1013.92 1014.17 1014.48 1014.83 1015.19 1015.54 1015.87 1016.16 1016.42 1016.64 1016.82 1016.96 1017.06 1017.10 1017.10 1017.03 1016.90 1016.70 1016.43 1016.10 1015.72 1015.29 1014.84 1014.36 1013.88 1013.40 1012.93 1012.47 1012.02 1011.58
1018.45 1018.02 1017.48 1016.85 1016.16 1015.45 1014.76 1014.13 1013.60 1013.21 1012.97 1012.89 1012.95 1013.15 1013.45 1013.83 1014.25 1014.68 1015.10 1015.49 1015.84 1016.15 1016.40 1016.61 1016.78 1016.91 1016.99 1017.02 1017.00 1016.91 1016.75 1016.52 1016.21 1015.84 1015.41 1014.94 1014.44 1013.92 1013.40 1012.89 1012.38 1011.89 1011.40 1010.92
1017.83 1017.33 1016.73 1016.05 1015.33 1014.62 1013.94 1013.34 1012.87 1012.55 1012.39 1012.39 1012.54 1012.82 1013.19 1013.63 1014.10 1014.57 1015.01 1015.41 1015.76 1016.06 1016.31 1016.51 1016.67 1016.79 1016.86 1016.88 1016.83 1016.72 1016.52 1016.25 1015.91 1015.49 1015.02 1014.51 1013.97 1013.42 1012.87 1012.32 1011.79 1011.26 1010.75 1010.24
1017.17 1016.64 1016.04 1015.39 1014.72 1014.06 1013.46 1012.95 1012.57 1012.32 1012.23 1012.29 1012.48 1012.79 1013.18 1013.61 1014.07 1014.52 1014.93 1015.31 1015.64 1015.92 1016.16 1016.35 1016.50 1016.60 1016.66 1016.65 1016.58 1016.44 1016.22 1015.91 1015.53 1015.08 1014.57 1014.03 1013.46 1012.89 1012.31 1011.74 1011.18 1010.63 1010.08 1009.54
1016.57 1016.06 1015.50 1014.93 1014.35 1013.81 1013.33 1012.94 1012.66 1012.50 1012.47 1012.56 1012.75 1013.03 1013.38 1013.76 1014.15 1014.53 1014.88 1015.21 1015.49 1015.74 1015.95 1016.12 1016.25 1016.34 1016.38 1016.35 1016.26 1016.09 1015.84 1015.50 1015.09 1014.62 1014.09 1013.53 1012.95 1012.36 1011.76 1011.17 1010.58 1010.00 1009.43 1008.87
1016.10 1015.63 1015.15 1014.68 1014.23 1013.83 1013.50 1013.24 1013.06 1012.98 1013.00 1013.09 1013.26 1013.48 1013.75 1014.03 1014.32 1014.61 1014.88 1015.12 1015.35 1015.55 1015.72 1015.86 1015.96 1016.03 1016.04 1015.99 1015.87 1015.67 1015.40 1015.04 1014.62 1014.13 1013.61 1013.04 1012.45 1011.85 1011.25 1010.64 1010.03 1009.42 1008.82 1008.23
1015.80 1015.37 1014.98 1014.61 1014.30 1014.04 1013.84 1013.71 1013.64 1013.63 1013.67 1013.76 1013.89 1014.04 1014.21 1014.39 1014.57 1014.74 1014.91 1015.07 1015.23 1015.36 1015.48 1015.58 1015.65 1015.67 1015.65 1015.57 1015.42 1015.20 1014.90 1014.54 1014.11 1013.63 1013.11 1012.56 1011.98 1011.38 1010.77 1010.14 1009.51 1008.87 1008.24 1007.61
1015.66 1015.27 1014.94 1014.67 1014.46 1014.33 1014.25 1014.22 1014.24 1014.29 1014.35 1014.43 1014.51 1014.60 1014.68 1014.76 1014.83 1014.91 1014.99 1015.06 1015.14 1015.21 1015.27 1015.31 1015.32 1015.29 1015.22 1015.10 1014.91 1014.66 1014.35 1013.99 1013.57 1013.11 1012.61 1012.08 1011.52 1010.93 1010.32 1009.68 1009.02 1008.36 1007.69 1007.03
Thickness
5586 5579 5571 5573 5576 5579 5576 5574 5573 5577 5582 5583 5584 5588 5595 5598 5600 5600 5601 5601 5603 5606 5609 5611 5612 5613 5613 5613 5614 5616 5617 5618 5620 5620 5621 5621 5622 5623 5625 5625 5626 5626 5626 5626
5577 5574 5575 5578 5578 5576 5574 5572 5570 5574 5579 5580 5578 5584 5593 5595 5597 5599 5600 5599 5601 5603 5605 5606 5607 5607 5608 5608 5609 5611 5613 5614 5614 5613 5614 5615 5615 5616 5617 5618 5619 5619 5619 5619
5575 5574 5577 5577 5573 5572 5568 5565 5566 5568 5572 5573 5573 5583 5589 5594 5594 5596 5596 5598 5599 5601 5601 5602 5602 5602 5601 5602 5604 5607 5607 5608 5608 5608 5609 5610 5609 5610 5610 5611 5611 5611 5612 5612
5570 5572 5574 5572 5569 5568 5565 5567 5567 5566 5561 5555 5562 5561 5581 5585 5587 5591 5592 5591 5593 5596 5597 5598 5599 5599 5598 5598 5599 5600 5601 5602 5602 5602 5603 5603 5602 5602 5603 5603 5603 5604 5605 5605
5568 5568 5568 5567 5567 5566 5563 5564 5561 5560 5555 5549 5552 5551 5569 5576 5583 5588 5589 5588 5588 5590 5591 5593 5593 5594 5594 5593 5593 5594 5594 5595 5595 5596 5597 5596 5595 5595 5594 5596 5596 5597 5598 5598
5564 5566 5564 5564 5564 5562 5560 5557 5552 5541 5541 5545 5550 5545 5560 5567 5579 5583 5585 5585 5584 5584 5585 5586 5587 5588 5587 5587 5587 5587 5587 5588 5589 5590 5590 5590 5589 5589 5588 5589 5589 5589 5590 5590
5558 5560 5560 5560 5558 5555 5552 5545 5535 5538 5533 5541 5544 5541 5555 5572 5575 5577 5578 5578 5578 5578 5578 5579 5580 5581 5580 5581 5581 5581 5581 5582 5583 5583 5583 5583 5583 5583 5583 5582 5582 5582 5582 5583
5547 5548 5553 5552 5552 5546 5543 5542 5533 5536 5533 5531 5535 5538 5561 5572 5571 5570 5571 5571 5571 5572 5571 5573 5573 5573 5573 5574 5574 5574 5575 5576 5577 5577 5577 5576 5576 5576 5576 5576 5576 5575 5575 5576
5537 5541 5548 5548 5547 5545 5539 5530 5530 5518 5514 5517 5531 5539 5556 5568 5567 5566 5565 5565 5564 5564 5565 5565 5565 5566 5566 5566 5567 5568 5569 5570 5570 5570 5570 5569 5569 5569 5569 5569 5569 5569 5569 5569
5535 5531 5537 5538 5541 5537 5534 5522 5511 5513 5521 5525 5532 5535 5546 5559 5560 5561 5559 5557 5558 5558 5557 5558 5557 5557 5558 5558 5559 5560 5561 5562 5563 5563 5563 5563 5563 5562 5562 5562 5561 5562 5562 5562
5529 5522 5525 5527 5528 5527 5522 5518 5511 5502 5506 5511 5519 5541 5552 5551 5553 5552 5550 5549 5549 5549 5548 5547 5548 5549 5549 5549 5550 5551 5552 5553 5554 5555 5555 5555 5555 5555 5554 5554 5555 5555 5555 5555
5516 5507 5508 5516 5522 5522 5519 5515 5505 5506 5501 5488 5491 5528 5551 5544 5543 5542 5542 5542 5542 5542 5540 5540 5540 5540 5541 5541 5542 5543 5544 5545 5546 5547 5547 5547 5547 5547 5547 5547 5547 5547 5547 5547
5506 5501 5504 5513 5511 5508 5508 5506 5501 5496 5490 5478 5486 5525 5540 5535 5536 5536 5534 5533 5532 5533 5533 5531 5531 5532 5532 5533 5534 5535 5535 5536 5537 5538 5538 5538 5538 5539 5539 5539 5539 5539 5538 5538
5503 5492 5495 5506 5510 5501 5498 5499 5493 5488 5480 5481 5492 5515 5529 5530 5528 5526 5525 5525 5524 5524 5524 5523 5523 5523 5523 5524 5524 5525 5526 5527 5528 5528 5529 5529 5530 5530 5531 5531 5530 5530 5529 5529
5490 5483 5483 5487 5491 5490 5492 5495 5489 5485 5487 5487 5501 5504 5523 5521 5518 5517 5516 5515 5515 5515 5515 5515 5514 5514 5514 5514 5515 5516 5517 5518 5518 5518 5519 5520 5521 5521 5521 5521 5521 5521 5520 5520
5473 5472 5473 5476 5482 5480 5483 5489 5488 5489 5490 5490 5496 5505 5515 5510 5508 5506 5505 5505 5505 5505 5505 5505 5506 5505 5505 5505 5506 5506 5507 5508 5508 5508 5509 5510 5511 5511 5511 5512 5511 5511 5511 5511
5458 5457 5459 5463 5469 5470 5477 5492 5490 5487 5488 5488 5492 5504 5502 5498 5497 5496 5495 5495 5495 5495 5495 5495 5495 5495 5495 5495 5496 5496 5497 5497 5497 5498 5499 5500 5500 5500 5501 5501 5500 5500 5500 5501
5450 5447 5446 5450 5451 5455 5492 5495 5491 5486 5486 5483 5486 5489 5489 5489 5488 5486 5486 5485 5485 5485 5485 5485 5484 5484 5485 5484 5485 5485 5486 5486 5486 5487 5488 5489 5489 5489 5490 5489 5489 5489 5489 5490
5448 5443 5438 5438 5440 5455 5477 5482 5477 5472 5476 5478 5477 5478 5476 5474 5472 5474 5477 5476 5475 5475 5475 5474 5473 5473 5473 5473 5473 5473 5474 5474 5474 5476 5477 5478 5478 5478 5478 5478 5478 5478 5478 5479
5433 5433 5430 5430 5434 5446 5469 5471 5468 5466 5463 5470 5467 5466 5463 5460 5456 5465 5470 5467 5465 5464 5463 5463 5463 5462 5462 5462 5461 5461 5462 5462 5463 5465 5466 5466 5466 5465 5466 5466 5467 5467 5466 5467
5417 5414 5418 5423 5427 5440 5451 5452 5453 5449 5456 5460 5456 5454 5450 5449 5452 5455 5455 5454 5453 5453 5453 5452 5451 5450 5451 5450 5449 5449 5450 5450 5452 5453 5453 5454 5454 5454 5454 5454 5454 5454 5454 5455
5410 5406 5408 5411 5415 5431 5441 5435 5436 5440 5443 5444 5443 5442 5439 5440 5442 5442 5442 5441 5440 5440 5441 5440 5439 5439 5439 5438 5437 5437 5438 5440 5440 5440 5441 5441 5441 5441 5442 5442 5442 5442 5442 5442
5404 5409 5408 5411 5421 5427 5426 5426 5428 5427 5427 5429 5429 5429 5428 5428 5429 5430 5430 5429 5428 5428 5428 5428 5427 5428 5428 5426 5425 5425 5428 5428 5428 5428 5428 5429 5429 5429 5429 5429 5429 5430 5430 5430
5392 5397 5394 5395 5406 5411 5413 5413 5414 5414 5413 5414 5415 5415 5415 5415 5416 5417 5417 5416 5416 5416 5415 5415 5415 5415 5416 5416 5414 5415 5416 5416 5415 5416 5417 5417 5417 5417 5418 5417 5418 5418 5419 5419
5387 5380 5378 5382 5393 5396 5401 5400 5401 5402 5401 5401 5401 5401 5401 5401 5402 5403 5403 5403 5403 5403 5403 5402 5402 5403 5405 5404 5404 5404 5404 5404 5403 5404 5405 5405 5405 5406 5406 5406 5407 5408 5409 5409
5377 5372 5369 5379 5384 5380 5386 5388 5387 5387 5388 5388 5388 5389 5390 5388 5388 5389 5389 5390 5389 5389 5389 5389 5389 5390 5392 5392 5392 5393 5393 5392 5391 5392 5393 5393 5393 5394 5394 5395 5397 5399 5399 5401